FW6148 Weather Reports


Display with metric or nautical units.
time (UTC)temp
F
wind
direction
speed
MPH
gust
MPH
rain 1hr
in
rain 24hr
in
rain mn
in
humidity
%
barometer
mb
20260902120105 55 360 3.0 5.0 0.00 0.00 0.00 70 1011.4
20260902115525 54 0 0.0 0.0 0.00 0.00 0.00 71 1011.3
20260902115026 54 0 0.0 4.0 0.00 0.00 0.00 72 1011.2
20260902114550 54 0 0.0 4.0 0.00 0.00 0.00 71 1011.2
20260902114026 54 0 1.0 5.0 0.00 0.00 0.00 71 1011.0
20260902113526 54 0 2.0 5.0 0.00 0.00 0.00 72 1011.2
20260902113047 53 360 2.0 4.0 0.00 0.00 0.00 72 1011.2
20260902112525 54 360 0.0 3.0 0.00 0.00 0.00 72 1011.1
20260902112028 54 0 0.0 0.0 0.00 0.00 0.00 72 1011.2
20260902111602 54 0 0.0 0.0 0.00 0.00 0.00 72 1011.2
20260902111026 54 0 0.0 0.0 0.00 0.00 0.00 72 1011.2
20260902110528 54 0 0.0 0.0 0.00 0.00 0.00 71 1011.2
20260902110049 54 0 0.0 0.0 0.00 0.00 0.00 72 1011.2
20260902105528 54 0 0.0 0.0 0.00 0.00 0.00 73 1011.3
20260902105028 53 0 0.0 0.0 0.00 0.00 0.00 74 1011.4
20260902104549 53 0 0.0 3.0 0.00 0.00 0.00 74 1011.4
20260902104026 53 0 0.0 3.0 0.00 0.00 0.00 73 1011.4
20260902103525 54 360 1.0 3.0 0.00 0.00 0.00 73 1011.4
20260902103047 54 0 0.0 2.0 0.00 0.00 0.00 73 1011.4
20260902102526 54 0 0.0 2.0 0.00 0.00 0.00 73 1011.3
20260902102026 54 0 0.0 4.0 0.00 0.00 0.00 72 1011.3
20260902101544 55 360 0.0 4.0 0.00 0.00 0.00 70 1011.4
20260902101030 55 360 2.0 4.0 0.00 0.00 0.00 71 1011.4
20260902100529 55 360 1.0 4.0 0.00 0.00 0.00 70 1011.5
20260902095526 56 0 0.0 6.0 0.00 0.00 0.00 69 1011.5
20260902095027 57 360 2.0 6.0 0.00 0.00 0.00 68 1011.5
20260902094550 58 360 2.0 6.0 0.00 0.00 0.00 67 1011.5
20260902094026 57 360 3.0 6.0 0.00 0.00 0.00 68 1011.5
20260902093526 57 360 3.0 6.0 0.00 0.00 0.00 67 1011.5
20260902093045 58 360 4.0 8.0 0.00 0.00 0.00 67 1011.4
20260902092525 58 360 3.0 8.0 0.00 0.00 0.00 66 1011.5
20260902092026 58 360 4.0 8.0 0.00 0.00 0.00 66 1011.7
20260902091555 58 360 4.0 8.0 0.00 0.00 0.00 66 1011.6
20260902091028 58 360 3.0 8.0 0.00 0.00 0.00 65 1011.6
20260902090528 59 360 3.0 6.0 0.00 0.00 0.00 65 1011.6
20260902090051 59 360 3.0 6.0 0.00 0.00 0.00 64 1011.5
20260902085524 59 360 3.0 6.0 0.00 0.00 0.00 64 1011.6
20260902085025 59 360 3.0 6.0 0.00 0.00 0.00 64 1011.6
20260902084547 60 360 2.0 6.0 0.00 0.00 0.00 64 1011.7
20260902084026 59 360 2.0 5.0 0.00 0.00 0.00 64 1011.8
20260902083525 59 360 1.0 5.0 0.00 0.00 0.00 65 1011.8
20260902083052 59 360 2.0 5.0 0.00 0.00 0.00 65 1011.8
20260902082526 59 360 3.0 5.0 0.00 0.00 0.00 65 1011.8
20260902082026 58 360 2.0 5.0 0.00 0.00 0.00 66 1011.8
20260902081542 58 360 3.0 5.0 0.00 0.00 0.00 66 1011.8
20260902081026 57 360 2.0 4.0 0.00 0.00 0.00 67 1011.8
20260902080528 56 360 3.0 4.0 0.00 0.00 0.00 68 1012.0
20260902080054 56 360 1.0 4.0 0.00 0.00 0.00 68 1012.1
20260902075525 56 360 2.0 5.0 0.00 0.00 0.00 69 1011.9
20260902075025 55 360 3.0 5.0 0.00 0.00 0.00 71 1012.0
20260902074550 54 360 2.0 4.0 0.00 0.00 0.00 69 1012.0
20260902074026 55 0 0.0 3.0 0.00 0.00 0.00 67 1012.1
20260902073525 56 360 0.0 3.0 0.00 0.00 0.00 68 1012.1
20260902073048 56 0 0.0 0.0 0.00 0.00 0.00 68 1012.2
20260902072526 56 0 0.0 2.0 0.00 0.00 0.00 68 1012.1
20260902072025 57 0 0.0 2.0 0.00 0.00 0.00 66 1012.2
20260902071552 57 360 0.0 0.0 0.00 0.00 0.00 65 1012.1
20260902071028 59 0 0.0 3.0 0.00 0.00 0.00 64 1012.1
20260902070528 59 0 0.0 3.0 0.00 0.00 0.00 63 1012.2
20260902070054 60 0 1.0 3.0 0.00 0.00 0.00 63 1012.3
20260902065531 60 0 1.0 3.0 0.00 0.00 0.00 63 1012.3
20260902065026 60 360 1.0 4.0 0.00 0.00 0.00 62 1012.3
20260902064553 60 0 0.0 4.0 0.00 0.00 0.00 62 1012.3
20260902064027 61 360 2.0 5.0 0.00 0.00 0.00 61 1012.2
20260902063526 61 360 2.0 5.0 0.00 0.00 0.00 61 1012.1
20260902063057 61 360 2.0 4.0 0.00 0.00 0.00 61 1012.3
20260902062530 61 360 2.0 4.0 0.00 0.00 0.00 62 1012.2
20260902062026 61 360 1.0 3.0 0.00 0.00 0.00 61 1012.3
20260902061549 61 0 0.0 1.0 0.00 0.00 0.00 61 1012.4
20260902061028 61 0 0.0 4.0 0.00 0.00 0.00 61 1012.3
20260902060528 61 0 2.0 4.0 0.00 0.00 0.00 62 1012.4
20260902060053 60 360 0.0 3.0 0.00 0.00 0.00 62 1012.3
20260902055528 60 360 0.0 2.0 0.00 0.00 0.00 62 1012.2
20260902055025 60 0 0.0 2.0 0.00 0.00 0.00 62 1012.3
20260902054550 60 360 0.0 3.0 0.00 0.00 0.00 61 1012.4
20260902054028 60 0 0.0 3.0 0.00 0.00 0.00 61 1012.4
20260902053526 61 0 1.0 3.0 0.00 0.00 0.00 60 1012.4
20260902053049 61 360 1.0 3.0 0.00 0.00 0.00 60 1012.3
20260902052528 61 0 0.0 3.0 0.00 0.00 0.00 60 1012.3
20260902052029 61 360 1.0 3.0 0.00 0.00 0.00 60 1012.3
20260902051546 61 0 0.0 3.0 0.00 0.00 0.00 60 1012.3
20260902051025 61 0 1.0 3.0 0.00 0.00 0.00 60 1012.3
20260902050528 61 360 1.0 4.0 0.00 0.00 0.00 61 1012.4
20260902045528 61 0 1.0 4.0 0.00 0.00 0.00 62 1012.3
20260902045028 61 360 0.0 2.0 0.00 0.00 0.00 61 1012.4
20260902044552 61 0 0.0 4.0 0.00 0.00 0.00 61 1012.4
20260902044025 62 360 1.0 6.0 0.00 0.00 0.00 61 1012.5
20260902043525 62 360 2.0 6.0 0.00 0.00 0.00 60 1012.4
20260902043050 62 360 3.0 5.0 0.00 0.00 0.00 59 1012.5
20260902042528 63 360 2.0 5.0 0.00 0.00 0.00 58 1012.3
20260902042029 63 360 1.0 5.0 0.00 0.00 0.00 56 1012.5
20260902041544 64 360 2.0 6.0 0.00 0.00 0.00 56 1012.4
20260902041024 64 360 3.0 6.0 0.00 0.00 0.00 56 1012.4
20260902040528 64 360 1.0 5.0 0.00 0.00 0.00 55 1012.4
20260902035526 64 0 1.0 5.0 0.00 0.00 0.00 56 1012.3
20260902035028 63 360 2.0 5.0 0.00 0.00 0.00 56 1012.3
20260902034550 63 0 0.0 4.0 0.00 0.00 0.00 56 1012.4
20260902034025 62 360 1.0 3.0 0.00 0.00 0.00 57 1012.3
20260902033529 62 0 0.0 0.0 0.00 0.00 0.00 56 1012.3
20260902033048 62 0 0.0 0.0 0.00 0.00 0.00 56 1012.2
20260902032529 62 0 0.0 0.0 0.00 0.00 0.00 56 1012.2
20260902032028 62 0 0.0 3.0 0.00 0.00 0.00 54 1012.1
20260902031550 63 0 0.0 3.0 0.00 0.00 0.00 54 1012.2
20260902031029 64 0 1.0 3.0 0.00 0.00 0.00 53 1012.1
20260902030525 65 0 0.0 5.0 0.00 0.00 0.00 51 1012.2
20260902030049 65 360 1.0 5.0 0.00 0.00 0.00 51 1012.3
20260902025528 65 360 1.0 4.0 0.00 0.00 0.00 51 1012.1
20260902025029 65 360 1.0 4.0 0.00 0.00 0.00 51 1012.0
20260902024556 66 360 1.0 4.0 0.00 0.00 0.00 50 1012.0
20260902024025 66 360 1.0 4.0 0.00 0.00 0.00 49 1012.0
20260902023525 66 0 2.0 4.0 0.00 0.00 0.00 50 1011.9
20260902023048 67 360 0.0 0.0 0.00 0.00 0.00 49 1011.8
20260902022526 67 0 0.0 0.0 0.00 0.00 0.00 50 1011.7
20260902022027 68 0 0.0 0.0 0.00 0.00 0.00 50 1011.7
20260902021546 68 0 0.0 0.0 0.00 0.00 0.00 49 1011.7
20260902021024 69 0 0.0 0.0 0.00 0.00 0.00 50 1011.8
20260902020524 69 0 0.0 1.0 0.00 0.00 0.00 47 1011.8
20260902020058 70 0 0.0 1.0 0.00 0.00 0.00 47 1011.8
20260902015525 71 0 0.0 1.0 0.00 0.00 0.00 47 1011.8
20260902015026 71 0 0.0 3.0 0.00 0.00 0.00 45 1011.7
20260902014547 71 0 0.0 3.0 0.00 0.00 0.00 44 1011.7
20260902014025 72 360 1.0 3.0 0.00 0.00 0.00 44 1011.7
20260902013525 72 0 0.0 2.0 0.00 0.00 0.00 44 1011.6
20260902013049 73 0 0.0 3.0 0.00 0.00 0.00 42 1011.4
20260902012524 73 0 1.0 3.0 0.00 0.00 0.00 42 1011.5
20260902012024 73 360 0.0 4.0 0.00 0.00 0.00 42 1011.6
20260902011550 73 0 0.0 4.0 0.00 0.00 0.00 42 1011.6
20260902011029 74 360 1.0 4.0 0.00 0.00 0.00 41 1011.6
20260902010528 74 360 0.0 3.0 0.00 0.00 0.00 40 1011.6
20260902010048 74 0 0.0 4.0 0.00 0.00 0.00 41 1011.7
20260902005525 74 360 0.0 4.0 0.00 0.00 0.00 41 1011.8
20260902005026 75 360 1.0 4.0 0.00 0.00 0.00 40 1011.8
20260902004550 75 0 0.0 1.0 0.00 0.00 0.00 42 1011.7
20260902004025 76 0 0.0 2.0 0.00 0.00 0.00 42 1011.8
20260902003525 76 0 0.0 3.0 0.00 0.00 0.00 39 1011.7
20260902003056 76 0 1.0 3.0 0.00 0.00 0.00 37 1011.7
20260902002525 76 360 0.0 2.0 0.00 0.00 0.00 36 1011.7
20260902002031 77 0 0.0 5.0 0.00 0.00 0.00 37 1011.8
20260902001554 77 0 1.0 5.0 0.00 0.00 0.00 37 1011.8
20260902001025 77 360 1.0 5.0 0.00 0.00 0.00 37 1011.9
20260902000530 77 0 0.0 4.0 0.00 0.00 0.00 38 1012.0
20260902000050 77 0 1.0 4.0 0.00 0.00 0.00 34 1012.0
20260901235525 77 360 1.0 4.0 0.00 0.00 0.00 35 1012.0
20260901235025 77 360 0.0 5.0 0.00 0.00 0.00 34 1012.0
20260901234551 77 360 1.0 8.0 0.00 0.00 0.00 35 1011.9
20260901234028 77 360 3.0 8.0 0.00 0.00 0.00 35 1011.9
20260901233527 77 360 3.0 9.0 0.00 0.00 0.00 36 1012.0
20260901233049 76 360 4.0 10.0 0.00 0.00 0.00 36 1012.0
20260901232532 76 360 4.0 10.0 0.00 0.00 0.00 38 1012.0
20260901232027 76 360 6.0 12.0 0.00 0.00 0.00 38 1012.1
20260901231550 75 360 2.0 12.0 0.00 0.00 0.00 38 1012.3
20260901231025 75 360 6.0 10.0 0.00 0.00 0.00 37 1012.5
20260901230527 75 360 2.0 6.0 0.00 0.00 0.00 38 1012.2
20260901225525 75 360 2.0 9.0 0.00 0.00 0.00 37 1012.1
20260901225028 76 360 0.0 9.0 0.00 0.00 0.00 37 1012.2
20260901224548 76 360 3.0 9.0 0.00 0.00 0.00 36 1012.2
20260901224029 76 360 1.0 8.0 0.00 0.00 0.00 37 1012.1
20260901223527 76 0 0.0 12.0 0.00 0.00 0.00 39 1012.2
20260901223050 76 360 2.0 12.0 0.00 0.00 0.00 38 1012.1
20260901222525 77 360 3.0 10.0 0.00 0.00 0.00 37 1012.1
20260901222024 78 360 3.0 8.0 0.00 0.00 0.00 35 1012.1
20260901221553 78 360 2.0 6.0 0.00 0.00 0.00 35 1012.0
20260901221028 79 360 1.0 8.0 0.00 0.00 0.00 35 1012.0
20260901220526 79 360 2.0 10.0 0.00 0.00 0.00 34 1012.0
20260901220113 80 39 2.0 10.0 0.00 0.00 0.00 35 1012.0
20260901215528 80 82 4.0 9.0 0.00 0.00 0.00 33 1012.1
20260901215026 81 42 3.0 5.0 0.00 0.00 0.00 32 1012.0
20260901214548 82 0 0.0 8.0 0.00 0.00 0.00 32 1011.9
20260901214027 82 0 2.0 8.0 0.00 0.00 0.00 32 1011.9
20260901213527 82 250 1.0 8.0 0.00 0.00 0.00 30 1011.8
20260901213047 82 242 0.0 3.0 0.00 0.00 0.00 31 1012.0
20260901212528 82 0 1.0 5.0 0.00 0.00 0.00 31 1012.0
20260901212027 82 0 1.0 8.0 0.00 0.00 0.00 32 1012.0
20260901211552 81 273 3.0 8.0 0.00 0.00 0.00 31 1012.0
20260901211026 81 226 2.0 6.0 0.00 0.00 0.00 31 1011.9
20260901210528 81 242 2.0 10.0 0.00 0.00 0.00 30 1012.0
20260901210045 81 208 4.0 10.0 0.00 0.00 0.00 30 1011.9
20260901205527 81 202 6.0 13.0 0.00 0.00 0.00 30 1012.0
20260901205026 81 239 7.0 14.0 0.00 0.00 0.00 30 1012.0
20260901204545 81 214 8.0 14.0 0.00 0.00 0.00 30 1012.0
20260901204027 81 205 3.0 13.0 0.00 0.00 0.00 31 1011.9
20260901203528 81 209 1.0 13.0 0.00 0.00 0.00 31 1011.8
20260901203044 82 234 9.0 13.0 0.00 0.00 0.00 30 1012.0
20260901202526 82 232 5.0 13.0 0.00 0.00 0.00 31 1012.0
20260901202025 82 0 1.0 12.0 0.00 0.00 0.00 31 1011.8
20260901201559 82 236 3.0 12.0 0.00 0.00 0.00 30 1012.0
20260901201026 82 255 3.0 14.0 0.00 0.00 0.00 31 1012.1
20260901200527 82 238 4.0 16.0 0.00 0.00 0.00 32 1012.1
20260901200050 82 286 8.0 16.0 0.00 0.00 0.00 32 1012.0
20260901195527 84 247 9.0 16.0 0.00 0.00 0.00 29 1012.0
20260901195028 84 219 9.0 16.0 0.00 0.00 0.00 31 1012.1
20260901194553 83 206 4.0 12.0 0.00 0.00 0.00 33 1012.1
20260901194025 83 237 5.0 16.0 0.00 0.00 0.00 32 1012.1
20260901193526 84 256 4.0 16.0 0.00 0.00 0.00 31 1012.1
20260901193043 84 244 8.0 18.0 0.00 0.00 0.00 31 1012.0
20260901192524 83 290 9.0 18.0 0.00 0.00 0.00 33 1012.1
20260901192025 83 254 10.0 18.0 0.00 0.00 0.00 32 1012.2
20260901191611 84 244 7.0 17.0 0.00 0.00 0.00 32 1012.2
20260901191026 84 277 5.0 16.0 0.00 0.00 0.00 31 1012.3
20260901190531 83 254 7.0 17.0 0.00 0.00 0.00 33 1012.3
20260901190048 83 258 6.0 18.0 0.00 0.00 0.00 33 1012.4
20260901185526 83 300 5.0 18.0 0.00 0.00 0.00 34 1012.4
20260901185025 83 242 10.0 17.0 0.00 0.00 0.00 33 1012.4
20260901184608 83 248 7.0 15.0 0.00 0.00 0.00 33 1012.5
20260901184030 83 224 4.0 16.0 0.00 0.00 0.00 34 1012.6
20260901183529 82 287 6.0 16.0 0.00 0.00 0.00 33 1012.6
20260901183053 82 288 7.0 16.0 0.00 0.00 0.00 34 1012.8
20260901182530 82 281 3.0 15.0 0.00 0.00 0.00 34 1012.7
20260901182032 81 241 8.0 20.0 0.00 0.00 0.00 35 1012.9
20260901181558 80 292 9.0 20.0 0.00 0.00 0.00 35 1012.9
20260901181029 81 232 8.0 18.0 0.00 0.00 0.00 34 1012.9
20260901180526 81 278 9.0 17.0 0.00 0.00 0.00 35 1012.9
20260901180045 80 252 8.0 17.0 0.00 0.00 0.00 35 1012.9
20260901175526 80 288 7.0 18.0 0.00 0.00 0.00 35 1013.0
20260901175026 80 294 7.0 18.0 0.00 0.00 0.00 35 1013.0
20260901174553 80 292 8.0 21.0 0.00 0.00 0.00 35 1013.1
20260901174028 81 252 10.0 21.0 0.00 0.00 0.00 34 1013.1
20260901173524 81 300 9.0 18.0 0.00 0.00 0.00 34 1013.0
20260901173050 80 232 10.0 19.0 0.00 0.00 0.00 35 1013.1
20260901172526 80 228 9.0 24.0 0.00 0.00 0.00 35 1013.1
20260901172027 80 360 10.0 24.0 0.00 0.00 0.00 36 1013.2
20260901171545 79 360 11.0 20.0 0.00 0.00 0.00 36 1013.2
20260901171026 79 360 9.0 21.0 0.00 0.00 0.00 36 1013.2
20260901170528 79 360 9.0 24.0 0.00 0.00 0.00 37 1013.2
20260901170053 79 360 12.0 24.0 0.00 0.00 0.00 36 1013.3
20260901165528 80 360 12.0 24.0 0.00 0.00 0.00 36 1013.3
20260901165031 79 360 9.0 23.0 0.00 0.00 0.00 37 1013.3
20260901164554 78 360 12.0 23.0 0.00 0.00 0.00 38 1013.3
20260901164025 77 360 9.0 21.0 0.00 0.00 0.00 38 1013.2
20260901163528 78 360 11.0 22.0 0.00 0.00 0.00 37 1013.3
20260901163048 77 360 12.0 22.0 0.00 0.00 0.00 38 1013.1
20260901162526 77 360 11.0 21.0 0.00 0.00 0.00 38 1013.1
20260901162026 77 360 8.0 21.0 0.00 0.00 0.00 38 1013.0
20260901161611 77 360 11.0 21.0 0.00 0.00 0.00 39 1013.0
20260901161027 77 360 10.0 21.0 0.00 0.00 0.00 39 1013.0
20260901160525 77 360 9.0 21.0 0.00 0.00 0.00 38 1012.9
20260901160112 77 360 8.0 21.0 0.00 0.00 0.00 37 1012.9
20260901155525 77 360 11.0 23.0 0.00 0.00 0.00 36 1012.9
20260901155027 78 360 13.0 23.0 0.00 0.00 0.00 35 1012.8
20260901154547 79 360 13.0 23.0 0.00 0.00 0.00 36 1012.9
20260901154027 79 360 10.0 22.0 0.00 0.00 0.00 35 1012.7
20260901153532 79 360 13.0 22.0 0.00 0.00 0.00 35 1012.8
20260901153100 78 360 10.0 22.0 0.00 0.00 0.00 35 1012.7
20260901152526 78 360 12.0 22.0 0.00 0.00 0.00 36 1012.9
20260901152026 76 360 12.0 20.0 0.00 0.00 0.00 38 1012.7
20260901151603 75 360 7.0 19.0 0.00 0.00 0.00 38 1012.8
20260901151028 73 360 9.0 20.0 0.00 0.00 0.00 38 1012.8
20260901150531 73 360 11.0 20.0 0.00 0.00 0.00 37 1012.9
20260901150049 72 360 11.0 19.0 0.00 0.00 0.00 36 1013.0
20260901145526 71 360 7.0 16.0 0.00 0.00 0.00 35 1012.9
20260901145029 70 360 6.0 16.0 0.00 0.00 0.00 35 1013.2
20260901144551 69 360 8.0 16.0 0.00 0.00 0.00 36 1013.2
20260901144026 67 360 5.0 15.0 0.00 0.00 0.00 37 1013.2
20260901143526 66 360 6.0 13.0 0.00 0.00 0.00 37 1013.2
20260901143107 65 360 6.0 13.0 0.00 0.00 0.00 38 1013.4
20260901142525 64 360 3.0 9.0 0.00 0.00 0.00 39 1013.3
20260901142029 64 360 4.0 9.0 0.00 0.00 0.00 39 1013.3
20260901141553 64 360 5.0 9.0 0.00 0.00 0.00 39 1013.3
20260901141030 64 360 5.0 12.0 0.00 0.00 0.00 39 1013.3
20260901140525 64 360 5.0 12.0 0.00 0.00 0.00 39 1013.3
20260901140053 64 360 5.0 11.0 0.00 0.00 0.00 40 1013.4
20260901135526 63 360 6.0 11.0 0.00 0.00 0.00 40 1013.3
20260901135028 63 360 5.0 11.0 0.00 0.00 0.00 41 1013.3
20260901134550 62 360 5.0 12.0 0.00 0.00 0.00 42 1013.3
20260901134029 62 360 5.0 12.0 0.00 0.00 0.00 41 1013.3
20260901133525 62 360 4.0 11.0 0.00 0.00 0.00 41 1013.3
20260901133052 62 360 5.0 12.0 0.00 0.00 0.00 41 1013.3
20260901132526 61 360 4.0 12.0 0.00 0.00 0.00 42 1013.3
20260901132027 60 360 2.0 6.0 0.00 0.00 0.00 43 1013.4
20260901131555 60 360 1.0 4.0 0.00 0.00 0.00 43 1013.3
20260901131028 60 0 0.0 4.0 0.00 0.00 0.00 44 1013.4
20260901130525 61 360 1.0 5.0 0.00 0.00 0.00 44 1013.3
20260901130052 60 0 2.0 6.0 0.00 0.00 0.00 42 1013.3
20260901125525 60 360 2.0 8.0 0.00 0.00 0.00 42 1013.3
20260901125026 60 360 3.0 8.0 0.00 0.00 0.00 42 1013.4
20260901124549 60 360 4.0 8.0 0.00 0.00 0.00 42 1013.4
20260901124025 60 360 2.0 6.0 0.00 0.00 0.00 42 1013.4
20260901123528 60 360 3.0 8.0 0.00 0.00 0.00 43 1013.4
20260901123056 60 360 2.0 8.0 0.00 0.00 0.00 43 1013.5
20260901122526 60 360 2.0 5.0 0.00 0.00 0.00 43 1013.5
20260901122027 59 360 2.0 5.0 0.00 0.00 0.00 43 1013.4
20260901121550 59 360 2.0 4.0 0.00 0.00 0.00 43 1013.5
20260901121027 59 360 1.0 3.0 0.00 0.00 0.00 44 1013.3
20260901120526 59 360 1.0 5.0 0.00 0.00 0.00 44 1013.3